Location: Newark
(42.8481°N, 0.4872°E)
Time: 13:40:30
(UTC+00:00)

A-11 Canister half - Pass Details

Date: 31 October 2020
Orbit: 1525 x 1684 km, 47.3° (Epoch: 01 December)

Event Time Altitude Azimuth Distance (km) Brightness Sun altitude
Rises 15:11:51 0° 259° (W) 4,788 12.8 15.2°
Reaches altitude 10° 15:15:00 10° 261° (W) 3,783 12.4 14.8°
Maximum altitude 15:24:34 74° 347° (NNW) 1,603 9.3 13.3°
Drops below altitude 10° 15:33:55 10° 72° (ENE) 3,699 10.5 11.9°
Sets 15:36:58 0° 75° (ENE) 4,677 10.9 11.4°
